This demonstration page uses our WeatherBlox Daily Observations layout. Learn more.

Left ArrowRight Arrow

Hourly Observations for July 20, 2022

Temp ( °F °C ) Dew Point ( °F °C ) Humidity (%) Winds ( mph kmh ) Pressure ( in mb ) Visibility ( mi km ) Precip ( " mm )
12:52 am 00:52 Clear 75 23.9 63 17.2 66 66 SSE 5 7 29.75 1007 10 16 0.00 0.00
1:52 am 01:52 Clear 71 21.7 61 16.1 71 71 WNW 6 9 29.78 1008 10 16 0.00 0.00
2:52 am 02:52 Clear 69 20.6 60 15.6 73 73 NNW 6 9 29.78 1009 10 16 0.00 0.00
3:52 am 03:52 Clear 69 20.6 60 15.6 73 73 NNW 6 9 29.79 1009 10 16 0.00 0.00
4:52 am 04:52 Clear 69 20.6 60 15.6 73 73 N 5 7 29.79 1009 10 16 0.00 0.00
5:52 am 05:52 Clear 68 20 60 15.6 76 76 NW 8 13 29.79 1009 10 16 0.00 0.00
6:52 am 06:52 Sunny 71 21.7 59 15 66 66 NW 13 20 29.81 1009 10 16 0.00 0.00
7:52 am 07:52 Sunny 73 22.8 60 15.6 64 64 NW 14 22 29.82 1010 10 16 0.00 0.00
8:52 am 08:52 Sunny 76 24.4 61 16.1 60 60 NW 13 20 29.84 1011 10 16 0.00 0.00
9:52 am 09:52 Sunny 79 26.1 62 16.7 56 56 NNW 14 22 29.85 1011 10 16 0.00 0.00
10:52 am 10:52 Sunny 82 27.8 62 16.7 51 51 NW 14 22 29.84 1011 10 16 0.00 0.00
11:52 am 11:52 Mostly Sunny 85 29.4 62 16.7 46 46 NW 14 22 29.85 1011 10 16 0.00 0.00
12:52 pm 12:52 Mostly Sunny 86 30 61 16.1 43 43 NNW 12 19 29.85 1011 10 16 0.00 0.00
1:52 pm 13:52 Sunny 88 31.1 60 15.6 39 39 NNW 16 26 29.84 1011 10 16 0.00 0.00
2:52 pm 14:52 Sunny 90 32.2 59 15 35 35 NNW 16 26 29.83 1010 10 16 0.00 0.00
3:52 pm 15:52 Sunny 91 32.8 59 15 34 34 NNW 15 24 29.83 1010 10 16 0.00 0.00
4:52 pm 16:52 Sunny 91 32.8 59 15 34 34 NW 15 24 29.82 1010 10 16 0.00 0.00
5:52 pm 17:52 Sunny 91 32.8 59 15 34 34 NNW 10 17 29.83 1010 10 16 0.00 0.00
6:52 pm 18:52 Sunny 90 32.2 59 15 35 35 NW 9 15 29.83 1010 10 16 0.00 0.00
7:52 pm 19:52 Sunny 86 30 63 17.2 46 46 NW 5 7 29.82 1010 10 16 0.00 0.00
8:52 pm 20:52 Sunny 83 28.3 61 16.1 48 48 Calm 29.83 1010 10 16 0.00 0.00
9:52 pm 21:52 Clear 79 26.1 63 17.2 58 58 Calm 29.85 1011 10 16 0.00 0.00
10:52 pm 22:52 Clear 75 23.9 63 17.2 66 66 SE 5 7 29.85 1011 10 16 0.00 0.00
11:52 pm 23:52 Clear 75 23.9 63 17.2 66 66 SE 6 9 29.85 1011 10 16 0.00 0.00

Powered by AerisWeather